Regional Weather Roundup
Issued by NWS Goodland, KS

Home | Current Version | Previous Version | Graphics & Text | Print | Product List | Glossary On
Versions: 1 2 3 4 5 6 7 8 9 10 11 12 13 14 15 16 17 18 19 20 21 22 23 24 25 26 27 28 29 30 31 32 33 34 35 36 37 38 39 40 41 42 43 44 45 46 47 48 49 50
000
ASUS43 KGLD 191108
RWRGLD

GOODLAND FORECAST AREA HOURLY WEATHER ROUNDUP
NATIONAL WEATHER SERVICE GOODLAND KS
500 AM MDT FRI SEP 19 2014

...OFFICIAL OBSERVATIONS...

CITY           SKY/WX    TMP DP  RH WIND       PRES   REMARKS
GOODLAND KS    CLEAR     63  59  87 S14       29.94R
HILL CITY KS   CLEAR     63  60  90 S6        29.91R
IMPERIAL NEB   CLEAR     62  56  80 S10       29.87S
MCCOOK NEB     CLEAR     55  55 100 NE3       29.88S FOG
AKRON CO       CLEAR     65  52  62 SW16      29.94S
BURLINGTON CO  CLEAR     61  57  87 SW13      29.96R
LIMON CO       CLEAR     55  46  71 CALM      30.01S
$$

...UNOFFICIAL OBSERVATIONS...

CITY           SKY/WX    TMP DP  RH WIND       PRES   REMARKS
COLBY KS       CLEAR     64  64 100 S9        29.93S
GOVE KS          N/A     65  32  29 MISG        N/A
NORTON KS      CLEAR     61  55  82 S7        29.88S
SHARON SPRINGS   N/A     60  58  93 S7          N/A
WAKEENEY KS      N/A     66  61  86 MISG        N/A
TRENTON NEB      N/A     56  32  40 S5          N/A
YUMA CO          N/A     58  53  83 S7          N/A
$$


USA.gov is the U.S. government's official web portal to all federal, state and local government web resources and services.